• Join FlightAware (Why Join?)
  • Login
  • US Flag 
09:40AM EST


 

Airport Tracker/Info


-or-


 

Live Flight TrackerFlight Track Log ✈ EJA837P ✈ 08-Jun-2013 ✈ KTOL - KIAD

Flight Track Log - Related Links

Times and Time Zones

All times are in EDT time to prevent confusion due to time zone crossing. See the EJA837P flight status page for this flight to view local times or setup timezone preferences in your user account.

Time Position Orientation Groundspeed Altitude Reporting Facility
EDT Latitude Longitude Course Direction KTS MPH feet Rate Location/Type
07:52PM 41.5261 -83.8242 129° Southeast 273 314 5,700  Level Indianapolis Center
07:53PM 41.4933 -83.7353 116° Southeast 234 269 9,500 3,570 Climbing Cleveland Center
07:54PM 41.4519 -83.6528 124° Southeast 255 293 12,900 3,227 Climbing Cleveland Center
07:55PM 41.4083 -83.5594 122° Southeast 279 321 15,900 2,950 Climbing Cleveland Center
07:56PM 41.3608 -83.4606 123° Southeast 297 342 18,800 2,628 Climbing Cleveland Center
07:57PM 41.3092 -83.3558 123° Southeast 318 366 21,200 2,200 Climbing Cleveland Center
07:58PM 41.2390 -83.1150 129° Southeast  Level FlightAware Approximate
07:58PM 41.2536 -83.2458 124° Southeast 346 398 23,200  Level Cleveland Center
07:59PM 41.1997 -83.1358 123° Southeast 375 432 25,200 2,033 Climbing Cleveland Center
08:00PM 41.1458 -83.0208 122° Southeast 385 443 27,300 1,900 Climbing Cleveland Center
08:01PM 41.0858 -82.9056 125° Southeast 380 437 29,000 1,168 Climbing Cleveland Center
08:04PM 40.9561 -82.6347 122° Southeast 404 465 31,000 625 Climbing Indianapolis Center
08:05PM 40.8897 -82.4986 123° Southeast 432 497 31,000  Level Indianapolis Center
08:06PM 40.8222 -82.3603 123° Southeast 444 511 31,000  Level Indianapolis Center
08:07PM 40.7594 -82.2308 123° Southeast 425 489 31,000  Level Indianapolis Center
08:08PM 40.6989 -82.1069 123° Southeast 406 467 31,000  Level Indianapolis Center
08:09PM 40.6278 -81.9672 124° Southeast 398 458 31,000  Level Cleveland Center
08:10PM 40.5789 -81.8642 122° Southeast 394 453 31,000  Level Indianapolis Center
08:11PM 40.5097 -81.7244 123° Southeast 390 449 31,000  Level Indianapolis Center
08:12PM 40.4506 -81.6058 123° Southeast 388 447 31,000  Level Indianapolis Center
08:13PM 40.3917 -81.4883 123° Southeast 384 442 31,000  Level Indianapolis Center
08:14PM 40.3319 -81.3683 123° Southeast 388 447 31,000  Level Indianapolis Center
08:15PM 40.2728 -81.2508 123° Southeast 385 443 31,000  Level Indianapolis Center
08:16PM 40.2133 -81.1322 123° Southeast 387 445 31,000  Level Indianapolis Center
08:17PM 40.1539 -81.0094 122° Southeast 393 452 31,000  Level Cleveland Center
08:18PM 40.0958 -80.8925 123° Southeast 388 447 31,000  Level Cleveland Center
08:19PM 40.0358 -80.7783 124° Southeast 388 447 31,000  Level Cleveland Center
08:20PM 39.9733 -80.6617 125° Southeast 388 447 31,000  Level Cleveland Center
08:21PM 39.9169 -80.5453 122° Southeast 388 447 31,000  Level Cleveland Center
08:22PM 39.8567 -80.4317 125° Southeast 388 447 31,000 -150 Level Cleveland Center
08:23PM 39.7958 -80.3128 124° Southeast 383 441 30,700 -650 Descending Cleveland Center
08:24PM 39.7350 -80.1944 124° Southeast 383 441 29,700 -987 Descending Cleveland Center
08:25PM 39.6389 -80.0111 124° Southeast 400 460 28,100 -994 Descending Washington Center
08:26PM 39.5747 -79.8858 124° Southeast 410 472 27,100 -550 Descending Washington Center
08:27PM 39.5400 -79.7439 108° East 410 472 27,000 -50 Descending Washington Center
08:28PM 39.5119 -79.5917 103° East 411 473 27,000 -150 Level Washington Center
08:29PM 39.4836 -79.4342 103° East 433 498 26,700 -645 Descending Washington Center
08:30PM 39.4494 -79.2603 104° East 444 511 25,700 -1,109 Descending Washington Center
08:31PM 39.4208 -79.1056 103° East 450 518 24,500 -1,664 Descending Washington Center
08:32PM 39.3939 -78.9539 103° East 444 511 22,400 -2,213 Descending Washington Center
08:33PM 39.3667 -78.8022 103° East 433 498 20,000 -2,459 Descending Washington Center
08:34PM 39.3433 -78.6644 102° East 421 484 17,400 -2,847 Descending Washington Center
08:35PM 39.3175 -78.5292 104° East 398 458 14,400 -2,847 Descending Washington Center
08:36PM 39.2933 -78.4022 104° East 383 441 11,800 -1,686 Descending Washington Center
08:37PM 39.2500 -78.2958 118° Southeast 350 403 11,000 -639 Descending Washington Center
08:38PM 39.2019 -78.2058 125° Southeast 322 371 10,500 -900 Descending Washington Center
08:39PM 39.1597 -78.1267 125° Southeast 294 338 9,200 -1,513 Descending Washington Center
08:40PM 39.1197 -78.0478 123° Southeast 273 314 7,500 -1,091 Descending Washington Center
08:41PM 39.0775 -77.9739 126° Southeast 263 303 7,000 -595 Descending Washington Center
08:42PM 39.0372 -77.8978 124° Southeast 258 297 6,300 -500 Descending Washington Center
08:43PM 39.0053 -77.8300 121° Southeast 253 291 6,000 -151 Descending Washington Center
08:44PM 38.9669 -77.7489 121° Southeast 248 285 6,000  Level Washington Center
08:46PM 38.9833 -77.6000 82° East 257 296 6,000  Level Potomac TRACON
08:47PM 39.0333 -77.5667 27° Northeast 260 299 6,000  Level Potomac TRACON
08:48PM 39.1167 -77.5667 360° North 247 284 6,000 -397 Level Potomac TRACON
08:49PM 39.1500 -77.5167 49° Northeast 268 308 5,200 -694 Descending Potomac TRACON
08:50PM 39.1667 -77.4333 76° East 236 272 4,600 -1,000 Descending Potomac TRACON
08:51PM 39.1167 -77.4167 165° South 207 238 3,200 -950 Descending Potomac TRACON
08:52PM 39.0833 -77.4333 201° Southwest 180 207 2,700 -750 Descending Potomac TRACON
08:53PM 39.0333 -77.4333 180° South 170 196 1,700 -850 Descending Potomac TRACON
08:54PM 38.9833 -77.4333 180° South 135 155 1,000 -700 Descending Potomac TRACON
08:56PM 38.9474 -77.4599 165° South  Level Estimated